星链-3072 (STARLINK-3072 )

导读

STARLINK-3072是美国SpaceX星链项目的卫星,于北京时间2021年9月14日发射入轨,属于星链低轨互联网星座组网卫星。星链计划旨在为全球提供高速低延迟互联网服务,该卫星承担天地组网链路,支撑星座的通信覆盖能力,是星链大规模部署进程中的一颗标准组网卫星。

基本信息
目录编号:
49153
目录名称:
STARLINK-3072
国际标识:
2021-082Z
轨道中心:
EARTH
卫星名称:
星链-3072
卫星全名:
星链-3072 (STARLINK-3072 )
卫星状态:
在轨 (已飞行1738 天)
发射日期:
2021-09-14 UTC
国别 :
美国 (US)
星等 :
--
轨道信息
数据来源 国际轨道数据 AOE轨道数据
星历时间 2026-06-18T04:10:58+0800
14小时前
查看轨道信息
2026-06-16T08:00:00+0800
2天前
查看轨道信息
半长轴 6950.211km 6950.211km
偏心率 0.0002365 0.0002839
轨道倾角 70.000° 70.001°
近地点辐角 270.580° 259.000°
升交点赤经 1.939° 6.580°
平近点角 89.509° 253.883°
近地点 570.43km 570.1km
远地点 573.718km 574.048km
周期 96.107分钟 96.107分钟
每日圈数 14.983243 14.983242
详细信息
固有亮度:
5
最大亮度:
2.5
卫星平台:
Starlink v1.5
覆盖范围:
全球
运营商:
太空探索技术公司
运营商所在国:
美国
制造商(研发单位):
太空探索技术公司
制造商所在国:
美国
使用方式:
暂无
卫星简介
星链(Starlink)计划是由太空探索技术公司(SpaceX)提出的一个巨型低轨卫星互联网星座项目,计划在2019年至2024年间在太空搭建由约1.2万颗卫星组成的“星链”网络,其中1584颗将部署在地球上空550千米处的近地轨道,并从2020年开始工作。该卫星仍在工作。
2D轨道图
3D轨道图
轨道高度分析图
轨道倾角分析图
轨道综合分析图
查看轨道综合分析图